Location: Asheville, NC
(35.6000°N, 82.5500°W)
Time: 11:42:12
(UTC-04:00)

STRAND 1 - Pass Details

Date: 12 January 2018
Orbit: 769 x 781 km, 98.5° (Epoch: 22 June)

Event Time Altitude Azimuth Distance (km) Brightness Sun altitude
Exits shadow 19:00:56 12° 125° (SE) 2,148 ? -16.7°
Drops below altitude 10° 19:01:43 10° 133° (SE) 2,319 ? -16.8°
Sets 19:04:50 0° 153° (SSE) 3,243 ? -17.4°
